Location: *
(45.9500°N, 9.0833°E)
Time: 21:09:58
(UTC+00:00)

Vanguard 1 - All Passes

Search period start: 13 June 2021 00:00
Search period end: 23 June 2021 00:00
Orbit: 650 x 3832 km, 34.2° (Epoch: 12 June)

Date Brightness Start Highest point End Pass type
(mag) Time Alt. Az. Time Alt. Az. Time Alt. Az.
13 Jun - 00:16:31 10° WSW 00:31:52 47° S 00:40:28 10° ESE visible
13 Jun - 02:42:30 10° W 02:52:22 32° SSW 02:58:25 10° SE visible
13 Jun - 19:51:28 10° SSW 20:07:23 25° SSE 20:19:28 10° E visible
13 Jun - 22:12:16 10° SW 22:30:32 43° SSE 22:41:40 10° E visible
14 Jun - 00:37:42 10° WSW 00:52:43 47° S 01:01:06 10° ESE visible
14 Jun - 03:03:59 10° W 03:12:49 27° SSW 03:18:30 10° SSE daylight
14 Jun - 18:00:59 10° SE 18:05:26 11° SE 18:09:41 10° ESE daylight
14 Jun - 20:10:29 10° SSW 20:28:17 31° SSE 20:41:13 10° E visible
14 Jun - 22:32:56 10° SW 22:51:31 47° S 23:02:34 10° ESE visible
15 Jun - 00:58:58 10° WSW 01:13:31 45° SSW 01:21:40 10° ESE visible
15 Jun - 03:25:42 10° W 03:33:08 21° SW 03:38:17 10° S daylight
15 Jun - 18:14:26 10° SSE 18:26:05 17° SE 18:36:24 10° ESE daylight
15 Jun - 20:30:05 10° SSW 20:49:14 37° SSE 21:02:36 10° E visible
15 Jun - 22:53:50 10° WSW 23:12:31 50° S 23:23:22 10° ESE visible
16 Jun - 01:20:20 10° W 01:34:12 42° SSW 01:42:07 10° SE visible
16 Jun - 03:47:51 10° WSW 03:53:21 16° SW 03:57:32 10° S daylight
16 Jun - 18:31:34 10° S 18:46:46 22° SE 18:59:41 10° E daylight
16 Jun - 20:50:08 10° SW 21:10:12 42° SSE 21:23:47 10° E visible
16 Jun - 23:14:56 10° WSW 23:33:28 52° S 23:44:07 10° ESE visible
17 Jun - 01:41:46 10° W 01:54:48 37° SSW 02:02:26 10° SE visible
17 Jun - 04:11:34 10° WSW 04:13:27 11° SW 04:15:09 10° SW daylight
17 Jun - 18:49:58 10° SSW 19:07:30 28° SE 19:21:56 10° E daylight
17 Jun - 21:10:33 10° SW 21:31:13 47° SSE 21:44:48 10° E visible
17 Jun - 23:36:09 10° WSW 23:54:24 52° S 00:04:47 10° ESE visible
18 Jun - 02:03:18 10° W 02:15:17 32° SSW 02:22:34 10° SSE visible
18 Jun - 16:58:19 10° SSE 17:05:36 12° SE 17:12:40 10° ESE daylight
18 Jun - 19:09:07 10° SSW 19:28:19 34° SSE 19:43:39 10° E daylight
18 Jun - 21:31:14 10° SW 21:52:14 51° S 22:05:44 10° E visible
18 Jun - 23:57:29 10° W 00:15:15 50° SSW 00:25:23 10° ESE visible
19 Jun - 02:25:02 10° W 02:35:36 26° SW 02:42:25 10° SSE visible
19 Jun - 17:13:15 10° SSE 17:26:03 18° SE 17:38:10 10° E daylight
19 Jun - 19:28:47 10° SSW 19:49:11 40° SSE 20:05:04 10° E visible
19 Jun - 21:52:09 10° WSW 22:13:17 54° S 22:26:35 10° ESE visible
20 Jun - 00:18:53 10° W 00:36:01 47° SSW 00:45:51 10° SE visible
20 Jun - 02:47:05 10° W 02:55:48 20° SW 03:01:52 10° S visible
20 Jun - 17:30:44 10° S 17:46:34 24° SE 18:01:19 10° E daylight
20 Jun - 19:48:52 10° SW 20:10:08 46° SSE 20:26:16 10° E visible
20 Jun - 22:13:14 10° WSW 22:34:19 55° S 22:47:22 10° ESE visible
21 Jun - 00:40:23 10° W 00:56:40 42° SSW 01:06:11 10° SE visible
21 Jun - 03:09:49 10° W 03:15:51 15° SW 03:20:33 10° SSW daylight
21 Jun - 17:49:18 10° SSW 18:07:09 30° SE 18:23:32 10° E daylight
21 Jun - 20:09:17 10° SW 20:31:09 50° SSE 20:47:21 10° E visible
21 Jun - 22:34:28 10° WSW 22:55:20 55° S 23:08:04 10° ESE visible
22 Jun - 01:01:57 10° W 01:17:11 37° SSW 01:26:21 10° SSE visible
22 Jun - 15:57:48 10° SSE 16:05:34 13° SE 16:13:28 10° ESE daylight
22 Jun - 18:08:33 10° SSW 18:27:50 36° SE 18:45:18 10° E daylight
22 Jun - 20:29:57 10° WSW 20:52:13 54° SSE 21:08:20 10° E visible
22 Jun - 22:55:47 10° W 23:16:16 54° SSW 23:28:42 10° ESE visible
